Colorado Springs, CO

5:09 AM MST on February 21, 2018 (GMT -0700)
City Of Colorado Springs Municipal

Weather History for KCOS - March, 2012

Change the Weather History Date:

Tuesday, March 13, 2012

  Actual Average Record
Temperature  
Mean Temperature 54 °F 38 °F  
Max Temperature 71 °F 52 °F 74 °F (2007)
Min Temperature 36 °F 25 °F -3 °F (1950)
Degree Days  
Heating Degree Days 11 27  
Month to date heating degree days 306 367  
Since 1 July heating degree days 4527 4930  
Cooling Degree Days 0 0  
Month to date cooling degree days 0 0  
Year to date cooling degree days 0 0  
Growing Degree Days 6 (Base 50)    
Moisture  
Dew Point 4 °F    
Average Humidity 14    
Maximum Humidity 22    
Minimum Humidity 6    
Precipitation  
Precipitation 0.00 in 0.04 in 0.31 in (1957)
Month to date precipitation 0.06 0.37  
Year to date precipitation 0.37 1.03  
Snow  
Snow 0.00 in 0.20 in 3.50 in (1937)
Month to date snowfall 0.7 3.1  
Since 1 July snowfall 21.7 27.1  
Snow Depth 0.00 in    
Sea Level Pressure  
Sea Level Pressure 29.82 in    
Wind  
Wind Speed 12 mph (SW)    
Max Wind Speed 33 mph    
Max Gust Speed 38 mph    
Visibility 10 miles    
Events      
T = Trace of Precipitation, MM = Missing Value Source: NWS Daily Summary

Daily Weather History Graph

Daily Weather History Graph

Search for Another Location

Airport or City:

Trip Planner

Search our weather history database for the weather conditions in past years. The results will help you decide how hot, cold, wet, or windy it might be!

Date:

Astronomy

Mar. 13, 2012 Rise Set
Actual Time 7:12 AM MDT 7:04 PM MDT
Civil Twilight 6:45 AM MDT 7:30 PM MDT
Nautical Twilight 6:14 AM MDT 8:01 PM MDT
Astronomical Twilight 5:43 AM MDT 8:33 PM MDT
Moon 12:35 AM MDT (3/13) 10:31 AM MDT (3/13)
Length of Visible Light 12h 45m
Length of Day
11h 52m
Waning Gibbous, 65% of the Moon is Illuminated
Mar 13
Waning Gibbous
Mar 14
Last Quarter
Mar 22
New
Mar 30
First Quarter
Apr 6
Full

Hourly Weather History & Observations

Time (MDT) Temp. Windchill Dew Point Humidity Pressure Visibility Wind Dir Wind Speed Gust Speed Precip Events Conditions
12:54 AM 41.0 °F 37.1 °F 5.0 °F 23% 29.89 in 10.0 mi North 5.8 mph - N/A   Clear
1:54 AM 46.9 °F - 5.0 °F 18% 29.85 in 10.0 mi North 4.6 mph - N/A   Clear
2:54 AM 44.1 °F 39.5 °F 6.1 °F 21% 29.86 in 10.0 mi North 8.1 mph - N/A   Clear
3:54 AM 44.1 °F - 6.1 °F 21% 29.85 in 10.0 mi Calm Calm - N/A   Clear
4:54 AM 45.0 °F - 6.1 °F 20% 29.86 in 10.0 mi Calm Calm - N/A   Clear
5:54 AM 44.6 °F 41.4 °F 6.8 °F 21% 30.00 in 10.0 mi West 5.8 mph - N/A   Partly Cloudy
6:54 AM 42.1 °F 38.4 °F 7.0 °F 24% 29.90 in 10.0 mi NNW 5.8 mph - N/A   Partly Cloudy
7:54 AM 44.1 °F 40.1 °F 8.1 °F 23% 29.93 in 10.0 mi NW 6.9 mph - N/A   Partly Cloudy
8:54 AM 46.9 °F - 8.1 °F 21% 29.91 in 10.0 mi West 3.5 mph - N/A   Partly Cloudy
9:54 AM 57.0 °F - 9.0 °F 15% 29.86 in 10.0 mi Calm Calm - N/A   Partly Cloudy
10:54 AM 62.1 °F - 5.0 °F 10% 29.87 in 10.0 mi SSW 15.0 mph 19.6 mph N/A   Partly Cloudy
11:54 AM 64.9 °F - 3.0 °F 9% 29.85 in 10.0 mi South 17.3 mph 28.8 mph N/A   Partly Cloudy
12:54 PM 66.0 °F - 3.9 °F 9% 29.82 in 10.0 mi South 18.4 mph - N/A   Partly Cloudy
1:54 PM 69.1 °F - -0.0 °F 6% 29.74 in 10.0 mi SSW 20.7 mph 29.9 mph N/A   Partly Cloudy
2:54 PM 70.0 °F - 1.0 °F 7% 29.72 in 10.0 mi SW 27.6 mph 35.7 mph N/A   Partly Cloudy
3:54 PM 69.1 °F - 1.9 °F 7% 29.72 in 10.0 mi SSW 19.6 mph 29.9 mph N/A   Partly Cloudy
4:54 PM 70.0 °F - -0.0 °F 6% 29.70 in 10.0 mi SSW 23.0 mph 29.9 mph N/A   Clear
5:54 PM 68.0 °F - -0.9 °F 6% 29.72 in 10.0 mi SSW 17.3 mph 21.9 mph N/A   Clear
6:54 PM 60.1 °F - 1.9 °F 10% 29.77 in 10.0 mi South 11.5 mph - N/A   Clear
7:54 PM 59.0 °F - -0.9 °F 9% 29.77 in 10.0 mi South 10.4 mph - N/A   Clear
8:54 PM 57.9 °F - 1.9 °F 10% 29.78 in 10.0 mi SSW 19.6 mph - N/A   Clear
9:54 PM 55.9 °F - 5.0 °F 13% 29.76 in 10.0 mi SSW 19.6 mph - N/A   Clear
10:54 PM 55.9 °F - 5.0 °F 13% 29.75 in 10.0 mi South 15.0 mph - N/A   Clear
11:54 PM 52.0 °F - 6.1 °F 16% 29.75 in 10.0 mi South 16.1 mph - N/A   Clear